Kokomo, IN

1:27 PM EST on December 08, 2019 (GMT -0500)
Kokomo Municipal

Weather History for KOKK - November, 2019

Change the Weather History Date:

Monday, November 11, 2019

  Actual Average (KGUS) Record (KGUS)
Temperature  
Mean Temperature 29 °F -  
Max Temperature 39 °F 48 °F 73 °F (2010)
Min Temperature 19 °F 33 °F 21 °F (2008)
Degree Days  
Heating Degree Days 36    
Moisture  
Dew Point 31 °F    
Average Humidity 96    
Maximum Humidity 100    
Minimum Humidity 89    
Precipitation  
Precipitation 0.00 in - - ()
Sea Level Pressure  
Sea Level Pressure 30.12 in    
Wind  
Wind Speed 10 mph (North)    
Max Wind Speed 21 mph    
Max Gust Speed 26 mph    
Visibility 4 miles    
Events Fog , Rain , Snow    
Averages and records for this station are not official NWS values.
T = Trace of Precipitation, MM = Missing Value Source: NWS Daily Summary

Daily Weather History Graph

Daily Weather History Graph

Search for Another Location

Airport or City:

Astronomy

Nov. 11, 2019 Rise Set
Actual Time 6:25 AM CST 4:30 PM CST
Civil Twilight 5:56 AM CST 4:59 PM CST
Nautical Twilight 5:23 AM CST 5:32 PM CST
Astronomical Twilight 4:51 AM CST 6:04 PM CST
Moon 4:25 PM CST (11/11) 5:15 AM CST (11/11)
Length of Visible Light 11h 02m
Length of Day
10h 04m
Waxing Gibbous, 99% of the Moon is Illuminated
Nov 11
Waxing Gibbous
Nov 12
Full
Nov 19
Last Quarter
Nov 26
New
Dec 4
First Quarter

Hourly Weather History & Observations

Time (CST) Temp. Windchill Dew Point Humidity Pressure Visibility Wind Dir Wind Speed Gust Speed Precip Events Conditions
12:56 AM 39.0 °F 33.4 °F 37.0 °F 93% 30.08 in 7.0 mi North 8.1 mph - N/A   Scattered Clouds
1:56 AM 37.0 °F 34.5 °F 36.0 °F 96% 30.06 in 6.0 mi NNE 3.5 mph - N/A   Scattered Clouds
2:07 AM 37.4 °F - 37.4 °F 100% 30.06 in 5.0 mi Calm Calm - N/A   Mostly Cloudy
2:22 AM 39.2 °F 37.0 °F 37.4 °F 93% 30.06 in 6.0 mi NNE 3.5 mph - N/A   Overcast
2:56 AM 39.0 °F - 37.9 °F 96% 30.08 in 6.0 mi Calm Calm - N/A   Overcast
3:56 AM 39.9 °F 34.5 °F 39.0 °F 97% 30.08 in 6.0 mi NNE 8.1 mph - N/A   Overcast
4:56 AM 39.0 °F 33.4 °F 37.0 °F 93% 30.07 in 8.0 mi NE 8.1 mph - N/A   Mostly Cloudy
5:42 AM 39.2 °F 35.9 °F 37.4 °F 93% 30.06 in 8.0 mi ENE 4.6 mph - N/A   Overcast
5:56 AM 39.9 °F 35.8 °F 37.9 °F 93% 30.08 in 7.0 mi ENE 5.8 mph - N/A   Overcast
6:56 AM 39.9 °F 35.1 °F 37.9 °F 93% 30.08 in 4.0 mi NNE 6.9 mph - 0.00 in   Overcast
7:22 AM 39.2 °F 34.2 °F 39.2 °F 100% 30.06 in 2.0 mi NNE 6.9 mph - 0.00 in Rain Light Rain
7:40 AM 39.2 °F 33.0 °F 39.2 °F 100% 30.05 in 1.8 mi NE 9.2 mph - 0.00 in Rain Light Rain
7:48 AM 39.2 °F 32.5 °F 39.2 °F 100% 30.04 in 1.5 mi NE 10.4 mph - 0.00 in Rain Light Rain
7:56 AM 39.0 °F 32.3 °F 39.0 °F 100% 30.07 in 1.5 mi NE 10.4 mph - 0.00 in Rain Light Rain
8:16 AM 39.2 °F 32.5 °F 39.2 °F 100% 30.05 in 2.0 mi NNE 10.4 mph - 0.00 in   Overcast
8:29 AM 39.2 °F 33.0 °F 37.4 °F 93% 30.05 in 1.8 mi NNE 9.2 mph - 0.00 in Rain Light Rain
8:56 AM 37.9 °F 30.9 °F 37.0 °F 97% 30.06 in 2.0 mi NE 10.4 mph - 0.00 in Rain Light Rain
9:06 AM 37.4 °F 29.3 °F 37.4 °F 100% 30.04 in 1.8 mi NE 12.7 mph - 0.00 in Rain Light Rain
9:25 AM 37.4 °F 29.3 °F 37.4 °F 100% 30.05 in 2.0 mi NNE 12.7 mph - 0.00 in   Overcast
9:56 AM 36.0 °F 26.0 °F 35.1 °F 97% 30.07 in 3.0 mi NNE 17.3 mph 24.2 mph 0.00 in Rain Light Rain
10:13 AM 35.6 °F 24.8 °F 33.8 °F 93% 30.07 in 2.5 mi North 19.6 mph - 0.00 in   Overcast
10:30 AM 33.8 °F 24.8 °F 33.8 °F 100% 30.06 in 3.0 mi NNE 12.7 mph 21.9 mph 0.00 in Rain Light Rain
10:41 AM 33.8 °F 22.2 °F 33.8 °F 100% 30.07 in 2.0 mi NNE 20.7 mph 26.5 mph 0.00 in   Overcast
10:56 AM 33.1 °F 21.9 °F 33.1 °F 100% 30.10 in 2.0 mi North 18.4 mph - 0.00 in Rain Light Rain
11:14 AM 33.8 °F 22.8 °F 33.8 °F 100% 30.07 in 3.0 mi North 18.4 mph - 0.00 in Rain Light Rain
11:21 AM 33.8 °F 23.5 °F 33.8 °F 100% 30.08 in 2.5 mi North 16.1 mph - 0.00 in   Overcast
11:36 AM 33.8 °F 23.5 °F 32.0 °F 93% 30.08 in 3.0 mi North 16.1 mph - 0.00 in   Overcast
11:56 AM 32.0 °F 20.8 °F 30.9 °F 96% 30.09 in 4.0 mi North 17.3 mph - 0.00 in Snow Light Snow
12:52 PM 30.2 °F 18.9 °F 30.2 °F 100% 30.07 in 2.0 mi North 16.1 mph - 0.00 in Snow Light Snow
12:56 PM 30.9 °F 19.4 °F 30.0 °F 96% 30.10 in 1.8 mi North 17.3 mph - 0.00 in Snow Light Snow
1:05 PM 30.2 °F 19.3 °F 30.2 °F 100% 30.07 in 0.8 mi North 15.0 mph - 0.00 in Snow Light Snow
1:21 PM 30.2 °F 18.9 °F 30.2 °F 100% 30.08 in 1.2 mi North 16.1 mph 25.3 mph 0.00 in Snow Light Snow
1:28 PM 30.2 °F 19.3 °F 30.2 °F 100% 30.08 in 1.0 mi North 15.0 mph 23.0 mph 0.00 in Snow Light Snow
1:37 PM 30.2 °F 18.5 °F 28.4 °F 93% 30.09 in 0.8 mi North 17.3 mph 24.2 mph 0.00 in Snow Light Snow
1:53 PM 30.2 °F 19.8 °F 28.4 °F 93% 30.09 in 0.8 mi North 13.8 mph - 0.00 in Snow Light Snow
1:56 PM 30.0 °F 20.0 °F 28.9 °F 96% 30.12 in 0.8 mi North 12.7 mph - 0.00 in Snow Light Snow
1:58 PM 30.2 °F 19.8 °F 28.4 °F 93% 30.09 in 1.0 mi North 13.8 mph - 0.00 in Snow Light Snow
2:17 PM 30.2 °F 20.2 °F 28.4 °F 93% 30.11 in 0.8 mi North 12.7 mph - 0.00 in Snow Light Snow
2:29 PM 30.2 °F 19.8 °F 28.4 °F 93% 30.11 in 1.0 mi North 13.8 mph - 0.00 in Snow Light Snow
2:37 PM 30.2 °F 20.2 °F 28.4 °F 93% 30.11 in 0.8 mi North 12.7 mph - 0.00 in Snow Light Snow
2:52 PM 30.2 °F 20.2 °F 28.4 °F 93% 30.11 in 1.2 mi North 12.7 mph 20.7 mph 0.00 in Snow Light Snow
2:53 PM 30.0 °F 20.0 °F 28.9 °F 96% 30.13 in 1.2 mi North 12.7 mph 20.7 mph 0.00 in Snow Light Snow
3:35 PM 28.4 °F 19.7 °F 28.4 °F 100% 30.14 in 1.0 mi NNW 9.2 mph - 0.00 in Snow Light Snow
3:56 PM 28.0 °F 16.1 °F 28.0 °F 100% 30.17 in 1.2 mi North 16.1 mph 24.2 mph 0.00 in Snow Light Snow
3:58 PM 28.4 °F 18.0 °F 28.4 °F 100% 30.15 in 0.8 mi North 12.7 mph 24.2 mph 0.00 in Snow Light Snow
4:13 PM 28.4 °F 18.0 °F 28.4 °F 100% 30.15 in 1.0 mi North 12.7 mph - 0.00 in Snow Light Snow
4:22 PM 28.4 °F 17.5 °F 26.6 °F 93% 30.16 in 1.2 mi NNW 13.8 mph - 0.00 in Snow Light Snow
4:27 PM 28.4 °F 18.0 °F 26.6 °F 93% 30.16 in 0.8 mi NNW 12.7 mph - 0.00 in Snow Light Snow
4:38 PM 28.4 °F 17.5 °F 26.6 °F 93% 30.15 in 0.5 mi North 13.8 mph - 0.00 in Fog , Snow Snow
4:56 PM 28.0 °F 18.6 °F 27.0 °F 96% 30.18 in 1.0 mi NNW 10.4 mph - 0.00 in Snow Light Snow
5:06 PM 28.4 °F 18.0 °F 26.6 °F 93% 30.14 in 1.5 mi NNW 12.7 mph - 0.00 in Snow Light Snow
5:24 PM 28.4 °F 19.1 °F 26.6 °F 93% 30.15 in 1.8 mi NNW 10.4 mph - 0.00 in Snow Light Snow
5:38 PM 28.4 °F 18.0 °F 26.6 °F 93% 30.16 in 3.0 mi NNW 12.7 mph - 0.00 in Snow Light Snow
5:56 PM 27.0 °F 16.1 °F 27.0 °F 100% 30.20 in 5.0 mi NNW 12.7 mph - 0.00 in Snow Light Snow
6:04 PM 26.6 °F 15.7 °F 26.6 °F 100% 30.18 in 6.0 mi NNW 12.7 mph - 0.00 in Snow Light Snow
6:15 PM 26.6 °F 15.7 °F 26.6 °F 100% 30.18 in 9.0 mi NNW 12.7 mph - 0.00 in Snow Light Snow
6:56 PM 27.0 °F 17.3 °F 24.1 °F 89% 30.22 in 10.0 mi NW 10.4 mph - 0.00 in   Scattered Clouds
7:56 PM 27.0 °F 16.1 °F 24.1 °F 89% 30.24 in 9.0 mi NW 12.7 mph - 0.00 in Snow Light Snow
8:18 PM 26.6 °F 15.2 °F 24.8 °F 93% 30.22 in 9.0 mi NW 13.8 mph - 0.00 in Snow Light Snow
8:40 PM 26.6 °F 13.1 °F 24.8 °F 93% 30.22 in 8.0 mi NW 19.6 mph - 0.00 in Snow Light Snow
8:56 PM 27.0 °F 14.3 °F 24.1 °F 89% 30.26 in 8.0 mi NW 17.3 mph 25.3 mph 0.00 in Snow Light Snow
9:56 PM 23.0 °F 8.3 °F 21.0 °F 92% 30.28 in 7.0 mi WNW 19.6 mph - 0.00 in Snow Light Snow
10:56 PM 21.0 °F 6.2 °F 19.0 °F 92% 30.29 in 8.0 mi WNW 18.4 mph 24.2 mph 0.00 in Snow Light Snow
11:39 PM 19.4 °F 4.1 °F 17.6 °F 93% 30.27 in 9.0 mi WNW 18.4 mph 25.3 mph 0.00 in Snow Light Snow
11:56 PM 19.9 °F 5.2 °F 17.1 °F 89% 30.32 in 9.0 mi WNW 17.3 mph - 0.00 in Snow Light Snow